Weather History for K0J4 - November, 2012

Change the Weather History Date:

Saturday, November 3, 2012

  Actual Average (KCEW) Record (KCEW)
Temperature  
Mean Temperature 70 °F -  
Max Temperature 84 °F 76 °F 86 °F (2012)
Min Temperature 57 °F 49 °F 28 °F (1999)
Cooling Degree Days 6    
Growing Degree Days 20 (Base 50)    
Moisture  
Dew Point 60 °F    
Average Humidity 84    
Maximum Humidity 100    
Minimum Humidity 44    
Precipitation  
Precipitation 0.00 in - - ()
Sea Level Pressure  
Sea Level Pressure 30.09 in    
Wind  
Wind Speed 1 mph (SW)    
Max Wind Speed 6 mph    
Max Gust Speed -    
Visibility 5 miles    
Events Fog    
Averages and records for this station are not official NWS values.
T = Trace of Precipitation, MM = Missing Value Source: NWS Daily Summary

Daily Weather History Graph

Daily Weather History Graph

Search for Another Location

Airport or City:

Trip Planner

Search our weather history database for the weather conditions in past years. The results will help you decide how hot, cold, wet, or windy it might be!

Date:

Astronomy

Nov. 03, 2012 Rise Set
Actual Time 7:02 AM CDT 5:54 PM CDT
Civil Twilight 6:37 AM CDT 6:19 PM CDT
Nautical Twilight 6:08 AM CDT 6:48 PM CDT
Astronomical Twilight 5:40 AM CDT 7:16 PM CDT
Moon 9:41 PM CDT (11/3) 10:59 AM CDT (11/3)
Length of Visible Light 11h 42m
Length of Day
10h 52m
Waning Gibbous, 80% of the Moon is Illuminated
Nov 3
Waning Gibbous
Nov 6
Last Quarter
Nov 13
New
Nov 20
First Quarter
Nov 28
Full

Hourly Weather History & Observations

Time (CDT) Temp. Heat Index Dew Point Humidity Pressure Visibility Wind Dir Wind Speed Gust Speed Precip Events Conditions
12:58 AM 64.0 °F - 62.1 °F 93% 30.06 in 7.0 mi Calm Calm - N/A   Clear
1:58 AM 64.0 °F - 62.1 °F 93% 30.06 in 4.0 mi Calm Calm - N/A   Clear
2:09 AM 62.6 °F - 60.8 °F 94% 30.06 in 2.5 mi Calm Calm - N/A   Clear
2:17 AM 62.6 °F - 60.8 °F 94% 30.06 in 3.0 mi Calm Calm - N/A   Clear
2:42 AM 62.6 °F - 60.8 °F 94% 30.06 in 2.0 mi Calm Calm - N/A   Clear
2:46 AM 62.6 °F - 60.8 °F 94% 30.06 in 1.2 mi Calm Calm - N/A   Clear
2:57 AM 62.1 °F - 60.1 °F 93% 30.05 in 3.0 mi Calm Calm - N/A   Clear
3:02 AM 62.6 °F - 60.8 °F 94% 30.06 in 2.5 mi Calm Calm - N/A   Clear
3:20 AM 62.6 °F - 60.8 °F 94% 30.06 in 3.0 mi Calm Calm - N/A   Clear
3:48 AM 62.6 °F - 60.8 °F 94% 30.07 in 2.5 mi Calm Calm - N/A   Clear
3:58 AM 61.0 °F - 60.1 °F 97% 30.06 in 1.2 mi Calm Calm - N/A   Clear
4:32 AM 60.8 °F - 59.0 °F 94% 30.08 in 0.8 mi Calm Calm - N/A   Clear
4:37 AM 60.8 °F - 59.0 °F 94% 30.08 in 1.0 mi Calm Calm - N/A   Clear
4:44 AM 60.8 °F - 59.0 °F 94% 30.08 in 2.0 mi Calm Calm - N/A   Clear
4:58 AM 60.1 °F - 59.0 °F 96% 30.08 in 1.8 mi Calm Calm - N/A   Clear
5:04 AM 60.8 °F - 59.0 °F 94% 30.09 in 0.8 mi Calm Calm - N/A   Mist
5:16 AM 60.8 °F - 59.0 °F 94% 30.09 in 1.2 mi Calm Calm - N/A   Partly Cloudy
5:31 AM 60.8 °F - 57.2 °F 88% 30.09 in 0.8 mi Calm Calm - N/A   Mist
5:58 AM 60.1 °F - 59.0 °F 96% 30.09 in 0.2 mi Calm Calm - N/A Fog Fog
6:07 AM 57.2 °F - 57.2 °F 100% 30.10 in 1.2 mi Calm Calm - N/A   Scattered Clouds
6:15 AM 57.2 °F - 57.2 °F 100% 30.11 in 0.8 mi Calm Calm - N/A   Mist
6:37 AM 59.0 °F - 57.2 °F 94% 30.11 in 1.2 mi Calm Calm - N/A   Partly Cloudy
6:58 AM 59.0 °F - 57.9 °F 96% 30.12 in 0.8 mi Calm Calm - N/A   Clear
7:20 AM 59.0 °F - 57.2 °F 94% 30.12 in 0.5 mi Calm Calm - N/A Fog Fog
7:28 AM 60.8 °F - 57.2 °F 88% 30.13 in 1.0 mi Calm Calm - N/A   Clear
7:35 AM 60.8 °F - 59.0 °F 94% 30.13 in 2.0 mi Calm Calm - N/A   Clear
7:52 AM 60.8 °F - 60.8 °F 100% 30.13 in 1.5 mi Calm Calm - N/A   Clear
7:58 AM 62.1 °F - 61.0 °F 96% 30.13 in 1.5 mi Calm Calm - N/A   Clear
8:06 AM 62.6 °F - 62.6 °F 100% 30.14 in 2.5 mi Calm Calm - N/A   Clear
8:11 AM 64.4 °F - 62.6 °F 94% 30.14 in 3.0 mi Calm Calm - N/A   Clear
8:58 AM 70.0 °F - 64.0 °F 81% 30.13 in 10.0 mi Calm Calm - N/A   Clear
9:58 AM 75.0 °F - 64.0 °F 69% 30.14 in 10.0 mi Calm Calm - N/A   Clear
10:58 AM 78.1 °F - 63.0 °F 60% 30.13 in 10.0 mi NNE 5.8 mph - N/A   Clear
11:58 AM 81.0 °F 81.9 °F 62.1 °F 52% 30.12 in 10.0 mi Calm Calm - N/A   Clear
12:58 PM 82.9 °F 83.2 °F 60.1 °F 46% 30.09 in 10.0 mi Variable 3.5 mph - N/A   Clear
1:58 PM 84.0 °F 84.0 °F 60.1 °F 44% 30.07 in 10.0 mi Variable 3.5 mph - N/A   Partly Cloudy
2:58 PM 82.9 °F 82.8 °F 59.0 °F 44% 30.06 in 10.0 mi Variable 3.5 mph - N/A   Clear
3:58 PM 84.0 °F 84.0 °F 60.1 °F 44% 30.05 in 10.0 mi Variable 5.8 mph - N/A   Partly Cloudy
4:58 PM 82.0 °F 82.4 °F 60.1 °F 47% 30.05 in 10.0 mi Calm Calm - N/A   Partly Cloudy
5:58 PM 73.0 °F - 62.1 °F 68% 30.05 in 10.0 mi Calm Calm - N/A   Clear
6:58 PM 70.0 °F - 62.1 °F 76% 30.07 in 10.0 mi SSW 3.5 mph - N/A   Clear
7:58 PM 71.1 °F - 62.1 °F 73% 30.07 in 10.0 mi SW 5.8 mph - N/A   Clear
8:58 PM 68.0 °F - 62.1 °F 81% 30.08 in 10.0 mi SSW 4.6 mph - N/A   Clear
9:58 PM 68.0 °F - 62.1 °F 81% 30.09 in 10.0 mi SW 5.8 mph - N/A   Clear
10:58 PM 64.9 °F - 61.0 °F 87% 30.09 in 10.0 mi Calm Calm - N/A   Clear
11:58 PM 64.0 °F - 61.0 °F 90% 30.09 in 9.0 mi Calm Calm - N/A   Clear